QPF
0.00 0.00 0.00 0.00 0.00 0.00 0.00 0.00 0.00 0.00 0.00 0.00 0.00 0.00 0.00 0.00 0.01 0.00 0.01 0.00 0.00 0.00 0.00 0.00 0.01 0.02 0.04 0.06 0.04 0.03 0.02 0.03 0.07 0.08 0.08 0.08 0.09 0.08 0.07 0.06 0.07 0.05 0.03 0.03
0.00 0.00 0.00 0.00 0.00 0.00 0.00 0.00 0.00 0.00 0.00 0.00 0.00 0.00 0.00 0.00 0.00 0.00 0.00 0.01 0.00 0.00 0.00 0.01 0.01 0.02 0.03 0.04 0.03 0.03 0.03 0.05 0.06 0.07 0.08 0.07 0.07 0.07 0.10 0.10 0.10 0.09 0.07 0.06
0.00 0.00 0.00 0.00 0.00 0.00 0.00 0.00 0.00 0.00 0.00 0.00 0.00 0.00 0.00 0.00 0.00 0.00 0.01 0.01 0.01 0.01 0.01 0.01 0.02 0.03 0.04 0.04 0.04 0.04 0.06 0.07 0.08 0.09 0.11 0.08 0.07 0.06 0.07 0.06 0.06 0.08 0.08 0.06
0.00 0.00 0.00 0.00 0.00 0.00 0.00 0.00 0.00 0.00 0.00 0.00 0.00 0.00 0.01 0.01 0.01 0.01 0.01 0.01 0.02 0.01 0.02 0.02 0.04 0.05 0.06 0.05 0.04 0.05 0.06 0.08 0.07 0.09 0.10 0.09 0.08 0.06 0.06 0.06 0.08 0.10 0.10 0.08
0.00 0.00 0.00 0.00 0.00 0.00 0.00 0.00 0.00 0.00 0.00 0.00 0.00 0.00 0.00 0.01 0.01 0.01 0.01 0.01 0.01 0.02 0.03 0.04 0.04 0.05 0.06 0.05 0.05 0.05 0.07 0.07 0.08 0.08 0.09 0.10 0.08 0.08 0.10 0.11 0.10 0.09 0.09 0.08
0.00 0.00 0.00 0.00 0.00 0.00 0.00 0.00 0.00 0.00 0.00 0.00 0.00 0.00 0.00 0.00 0.00 0.00 0.01 0.01 0.01 0.02 0.03 0.04 0.06 0.06 0.07 0.08 0.06 0.06 0.06 0.07 0.07 0.07 0.07 0.07 0.07 0.08 0.09 0.09 0.09 0.08 0.07 0.07
0.00 0.00 0.00 0.00 0.00 0.00 0.00 0.00 0.00 0.00 0.00 0.00 0.00 0.00 0.00 0.00 0.01 0.01 0.01 0.02 0.02 0.01 0.02 0.04 0.06 0.05 0.06 0.07 0.06 0.08 0.08 0.08 0.07 0.06 0.06 0.07 0.09 0.10 0.10 0.10 0.09 0.08 0.07 0.05
0.00 0.00 0.00 0.00 0.00 0.00 0.00 0.00 0.00 0.00 0.00 0.00 0.00 0.00 0.00 0.00 0.01 0.01 0.01 0.02 0.02 0.02 0.03 0.03 0.05 0.07 0.07 0.07 0.07 0.06 0.07 0.08 0.08 0.06 0.07 0.10 0.11 0.12 0.12 0.12 0.11 0.08 0.06 0.06
0.00 0.00 0.00 0.00 0.00 0.00 0.00 0.00 0.00 0.00 0.00 0.00 0.00 0.00 0.00 0.00 0.00 0.01 0.01 0.01 0.02 0.02 0.03 0.04 0.05 0.06 0.06 0.06 0.06 0.06 0.09 0.10 0.10 0.11 0.13 0.15 0.16 0.16 0.16 0.14 0.12 0.10 0.10 0.09
0.00 0.00 0.00 0.00 0.00 0.00 0.00 0.00 0.00 0.00 0.00 0.00 0.00 0.00 0.00 0.00 0.00 0.00 0.01 0.01 0.02 0.02 0.02 0.03 0.05 0.06 0.06 0.07 0.10 0.11 0.10 0.12 0.14 0.17 0.17 0.18 0.17 0.15 0.14 0.11 0.08 0.08 0.08 0.10
0.00 0.00 0.00 0.00 0.00 0.00 0.00 0.00 0.00 0.00 0.00 0.00 0.00 0.00 0.00 0.00 0.00 0.00 0.00 0.01 0.02 0.03 0.04 0.04 0.05 0.05 0.04 0.06 0.10 0.14 0.13 0.13 0.13 0.15 0.18 0.18 0.17 0.15 0.13 0.10 0.06 0.06 0.06 0.06
0.00 0.00 0.00 0.00 0.00 0.00 0.00 0.00 0.00 0.00 0.00 0.00 0.00 0.00 0.00 0.00 0.00 0.00 0.00 0.01 0.02 0.02 0.03 0.04 0.05 0.06 0.06 0.06 0.06 0.09 0.11 0.12 0.12 0.12 0.11 0.11 0.11 0.13 0.14 0.10 0.06 0.05 0.04 0.04
0.00 0.00 0.00 0.00 0.00 0.00 0.00 0.00 0.00 0.00 0.00 0.00 0.00 0.00 0.00 0.00 0.00 0.00 0.01 0.01 0.02 0.02 0.03 0.03 0.05 0.07 0.09 0.08 0.07 0.06 0.08 0.09 0.10 0.09 0.09 0.08 0.07 0.08 0.09 0.09 0.06 0.05 0.05 0.06
0.00 0.00 0.00 0.00 0.00 0.00 0.00 0.00 0.00 0.00 0.00 0.00 0.00 0.00 0.00 0.00 0.00 0.01 0.01 0.02 0.02 0.02 0.04 0.04 0.04 0.07 0.08 0.08 0.08 0.07 0.07 0.06 0.06 0.06 0.06 0.06 0.06 0.05 0.06 0.08 0.08 0.06 0.07 0.09
0.00 0.00 0.00 0.00 0.00 0.00 0.00 0.00 0.00 0.00 0.00 0.00 0.00 0.00 0.00 0.00 0.00 0.01 0.01 0.01 0.02 0.03 0.05 0.05 0.04 0.06 0.07 0.07 0.07 0.06 0.05 0.05 0.04 0.04 0.06 0.07 0.08 0.07 0.07 0.09 0.09 0.07 0.08 0.09
0.00 0.00 0.00 0.00 0.00 0.00 0.00 0.00 0.00 0.00 0.00 0.00 0.00 0.00 0.00 0.00 0.01 0.01 0.01 0.02 0.03 0.05 0.04 0.03 0.02 0.03 0.04 0.04 0.05 0.04 0.05 0.06 0.06 0.05 0.06 0.07 0.07 0.07 0.07 0.06 0.07 0.06 0.08 0.09
0.00 0.00 0.00 0.00 0.00 0.00 0.00 0.00 0.00 0.00 0.00 0.00 0.00 0.00 0.00 0.01 0.01 0.02 0.03 0.03 0.03 0.05 0.03 0.02 0.01 0.02 0.02 0.02 0.02 0.03 0.06 0.08 0.08 0.08 0.07 0.08 0.06 0.06 0.06 0.06 0.06 0.06 0.08 0.09
0.00 0.00 0.00 0.00 0.00 0.00 0.00 0.00 0.00 0.00 0.00 0.00 0.00 0.00 0.00 0.01 0.01 0.03 0.04 0.04 0.04 0.04 0.04 0.02 0.02 0.02 0.02 0.03 0.03 0.05 0.07 0.10 0.09 0.08 0.07 0.07 0.07 0.07 0.07 0.07 0.08 0.09 0.12 0.12
0.00 0.00 0.00 0.00 0.01 0.00 0.00 0.00 0.00 0.00 0.00 0.00 0.00 0.00 0.00 0.01 0.02 0.03 0.04 0.05 0.05 0.06 0.05 0.03 0.03 0.04 0.05 0.04 0.05 0.06 0.08 0.10 0.08 0.05 0.05 0.06 0.06 0.08 0.09 0.08 0.11 0.12 0.13 0.12
0.00 0.00 0.00 0.00 0.00 0.00 0.00 0.00 0.00 0.00 0.01 0.01 0.01 0.01 0.01 0.01 0.03 0.04 0.04 0.04 0.04 0.05 0.06 0.06 0.06 0.06 0.07 0.05 0.04 0.05 0.06 0.05 0.05 0.06 0.08 0.08 0.09 0.11 0.13 0.14 0.16 0.14 0.13 0.10
0.00 0.01 0.00 0.00 0.01 0.01 0.00 0.00 0.00 0.00 0.00 0.00 0.01 0.01 0.01 0.02 0.05 0.05 0.04 0.05 0.06 0.06 0.06 0.05 0.05 0.05 0.06 0.05 0.04 0.03 0.03 0.03 0.04 0.05 0.05 0.06 0.06 0.06 0.07 0.09 0.10 0.09 0.10 0.08
0.00 0.00 0.01 0.01 0.01 0.01 0.00 0.01 0.00 0.00 0.00 0.00 0.01 0.01 0.02 0.03 0.04 0.04 0.04 0.05 0.06 0.06 0.06 0.05 0.05 0.06 0.07 0.07 0.06 0.04 0.04 0.04 0.04 0.02 0.02 0.02 0.01 0.01 0.01 0.02 0.05 0.08 0.07 0.07
0.02 0.01 0.01 0.01 0.01 0.01 0.01 0.01 0.01 0.00 0.01 0.01 0.01 0.01 0.02 0.04 0.06 0.06 0.06 0.06 0.06 0.06 0.06 0.05 0.05 0.05 0.05 0.07 0.07 0.07 0.04 0.03 0.02 0.02 0.02 0.01 0.01 0.01 0.01 0.02 0.03 0.06 0.07 0.06
0.04 0.03 0.02 0.02 0.02 0.02 0.02 0.02 0.02 0.02 0.02 0.02 0.02 0.03 0.04 0.05 0.05 0.05 0.05 0.04 0.04 0.04 0.04 0.04 0.04 0.03 0.03 0.03 0.03 0.04 0.04 0.02 0.02 0.03 0.03 0.02 0.01 0.01 0.01 0.02 0.02 0.03 0.04 0.05
0.04 0.04 0.03 0.03 0.04 0.04 0.03 0.03 0.03 0.03 0.03 0.05 0.06 0.06 0.06 0.06 0.05 0.04 0.04 0.04 0.04 0.04 0.03 0.03 0.02 0.02 0.02 0.02 0.02 0.02 0.02 0.02 0.02 0.02 0.02 0.01 0.01 0.01 0.01 0.01 0.02 0.03 0.03 0.03
0.04 0.04 0.04 0.05 0.05 0.04 0.03 0.04 0.04 0.04 0.04 0.06 0.07 0.09 0.08 0.08 0.07 0.06 0.05 0.04 0.04 0.03 0.03 0.03 0.02 0.02 0.02 0.02 0.02 0.02 0.02 0.02 0.02 0.02 0.02 0.02 0.01 0.01 0.01 0.00 0.01 0.02 0.02 0.03
MSLP
1011.73 1012.62 1013.38 1013.96 1014.35 1014.57 1014.65 1014.61 1014.48 1014.28 1014.00 1013.67 1013.27 1012.84 1012.39 1011.96 1011.59 1011.32 1011.17 1011.14 1011.23 1011.40 1011.63 1011.88 1012.11 1012.33 1012.53 1012.74 1012.97 1013.24 1013.57 1013.97 1014.40 1014.84 1015.26 1015.64 1015.94 1016.16 1016.31 1016.42 1016.52 1016.63 1016.79 1017.01
1012.16 1012.94 1013.57 1014.04 1014.36 1014.58 1014.70 1014.77 1014.78 1014.71 1014.56 1014.30 1013.93 1013.46 1012.93 1012.38 1011.89 1011.49 1011.25 1011.16 1011.22 1011.39 1011.63 1011.88 1012.11 1012.29 1012.44 1012.58 1012.74 1012.95 1013.24 1013.62 1014.07 1014.54 1015.01 1015.42 1015.74 1015.96 1016.08 1016.13 1016.15 1016.19 1016.29 1016.47
1012.38 1013.02 1013.50 1013.86 1014.13 1014.36 1014.57 1014.78 1014.96 1015.08 1015.09 1014.94 1014.62 1014.14 1013.53 1012.87 1012.25 1011.73 1011.38 1011.21 1011.24 1011.40 1011.65 1011.91 1012.15 1012.32 1012.44 1012.52 1012.62 1012.77 1013.02 1013.38 1013.83 1014.32 1014.82 1015.25 1015.58 1015.78 1015.85 1015.84 1015.78 1015.74 1015.77 1015.89
1012.40 1012.88 1013.22 1013.48 1013.72 1013.99 1014.31 1014.70 1015.09 1015.43 1015.62 1015.62 1015.37 1014.88 1014.21 1013.44 1012.68 1012.03 1011.56 1011.31 1011.29 1011.44 1011.70 1011.98 1012.24 1012.42 1012.52 1012.58 1012.63 1012.74 1012.95 1013.27 1013.69 1014.18 1014.68 1015.11 1015.43 1015.61 1015.64 1015.55 1015.42 1015.29 1015.23 1015.28
1012.27 1012.60 1012.82 1013.00 1013.23 1013.57 1014.04 1014.62 1015.25 1015.81 1016.20 1016.34 1016.17 1015.69 1014.96 1014.08 1013.19 1012.39 1011.80 1011.46 1011.37 1011.50 1011.77 1012.09 1012.38 1012.59 1012.70 1012.75 1012.78 1012.85 1013.01 1013.28 1013.67 1014.12 1014.59 1015.00 1015.29 1015.43 1015.41 1015.26 1015.05 1014.83 1014.68 1014.65
1012.06 1012.25 1012.38 1012.52 1012.77 1013.20 1013.83 1014.61 1015.45 1016.23 1016.81 1017.08 1016.98 1016.51 1015.73 1014.75 1013.72 1012.79 1012.08 1011.64 1011.49 1011.60 1011.88 1012.23 1012.56 1012.81 1012.96 1013.02 1013.04 1013.08 1013.18 1013.40 1013.72 1014.12 1014.53 1014.90 1015.15 1015.24 1015.17 1014.96 1014.68 1014.38 1014.14 1014.02
1011.80 1011.91 1011.97 1012.10 1012.40 1012.94 1013.71 1014.67 1015.70 1016.66 1017.39 1017.77 1017.73 1017.27 1016.44 1015.38 1014.24 1013.19 1012.36 1011.84 1011.63 1011.72 1012.01 1012.40 1012.78 1013.08 1013.28 1013.36 1013.38 1013.39 1013.45 1013.60 1013.85 1014.16 1014.50 1014.80 1014.99 1015.04 1014.92 1014.66 1014.32 1013.95 1013.63 1013.42
1011.54 1011.59 1011.63 1011.79 1012.15 1012.78 1013.67 1014.77 1015.94 1017.02 1017.85 1018.31 1018.31 1017.84 1016.99 1015.87 1014.66 1013.53 1012.63 1012.03 1011.79 1011.86 1012.15 1012.58 1013.01 1013.37 1013.61 1013.73 1013.76 1013.76 1013.77 1013.85 1014.01 1014.24 1014.49 1014.71 1014.85 1014.85 1014.69 1014.40 1014.01 1013.59 1013.20 1012.91
1011.26 1011.30 1011.36 1011.56 1011.99 1012.70 1013.67 1014.83 1016.07 1017.20 1018.08 1018.56 1018.58 1018.13 1017.27 1016.14 1014.91 1013.75 1012.82 1012.20 1011.94 1012.00 1012.31 1012.76 1013.23 1013.64 1013.93 1014.09 1014.14 1014.13 1014.11 1014.13 1014.21 1014.36 1014.53 1014.68 1014.75 1014.71 1014.53 1014.22 1013.81 1013.36 1012.93 1012.57
1010.93 1011.01 1011.13 1011.39 1011.88 1012.62 1013.62 1014.79 1016.01 1017.12 1017.98 1018.45 1018.47 1018.04 1017.22 1016.13 1014.94 1013.83 1012.92 1012.32 1012.07 1012.14 1012.46 1012.93 1013.44 1013.88 1014.22 1014.41 1014.49 1014.48 1014.44 1014.43 1014.45 1014.53 1014.63 1014.72 1014.76 1014.69 1014.50 1014.19 1013.79 1013.32 1012.86 1012.45
1010.53 1010.69 1010.89 1011.23 1011.75 1012.51 1013.46 1014.56 1015.69 1016.71 1017.48 1017.91 1017.93 1017.53 1016.79 1015.80 1014.73 1013.73 1012.92 1012.39 1012.19 1012.29 1012.62 1013.10 1013.62 1014.09 1014.45 1014.69 1014.79 1014.81 1014.78 1014.75 1014.75 1014.78 1014.84 1014.90 1014.91 1014.84 1014.66 1014.36 1013.98 1013.53 1013.06 1012.63
1010.07 1010.33 1010.63 1011.04 1011.59 1012.31 1013.18 1014.14 1015.11 1015.98 1016.63 1016.98 1016.99 1016.65 1016.03 1015.20 1014.31 1013.48 1012.83 1012.43 1012.30 1012.44 1012.79 1013.27 1013.79 1014.27 1014.65 1014.91 1015.06 1015.11 1015.11 1015.10 1015.10 1015.13 1015.18 1015.22 1015.23 1015.17 1015.01 1014.76 1014.41 1013.99 1013.54 1013.09
1009.56 1009.95 1010.36 1010.83 1011.38 1012.04 1012.77 1013.56 1014.32 1014.99 1015.49 1015.75 1015.75 1015.49 1015.01 1014.39 1013.73 1013.13 1012.68 1012.43 1012.42 1012.61 1012.98 1013.45 1013.96 1014.43 1014.82 1015.11 1015.30 1015.40 1015.45 1015.49 1015.53 1015.58 1015.64 1015.70 1015.72 1015.69 1015.57 1015.35 1015.05 1014.68 1014.26 1013.82
1009.08 1009.59 1010.11 1010.63 1011.16 1011.72 1012.30 1012.87 1013.40 1013.85 1014.17 1014.33 1014.32 1014.15 1013.84 1013.46 1013.06 1012.72 1012.50 1012.44 1012.55 1012.81 1013.20 1013.66 1014.14 1014.59 1014.99 1015.30 1015.53 1015.69 1015.81 1015.91 1016.01 1016.10 1016.20 1016.29 1016.34 1016.34 1016.26 1016.10 1015.86 1015.54 1015.16 1014.76
1008.68 1009.31 1009.91 1010.46 1010.96 1011.40 1011.80 1012.15 1012.44 1012.66 1012.80 1012.86 1012.85 1012.76 1012.63 1012.48 1012.36 1012.30 1012.33 1012.46 1012.70 1013.04 1013.45 1013.90 1014.35 1014.78 1015.17 1015.50 1015.77 1016.00 1016.19 1016.36 1016.52 1016.67 1016.82 1016.94 1017.04 1017.07 1017.04 1016.94 1016.75 1016.49 1016.17 1015.82
1008.44 1009.15 1009.80 1010.35 1010.80 1011.12 1011.34 1011.46 1011.51 1011.51 1011.49 1011.46 1011.43 1011.43 1011.47 1011.55 1011.69 1011.89 1012.16 1012.49 1012.86 1013.28 1013.72 1014.17 1014.60 1015.01 1015.39 1015.73 1016.04 1016.32 1016.58 1016.82 1017.05 1017.26 1017.45 1017.61 1017.74 1017.82 1017.83 1017.78 1017.66 1017.47 1017.22 1016.92
1008.38 1009.12 1009.79 1010.32 1010.69 1010.88 1010.93 1010.84 1010.68 1010.49 1010.31 1010.19 1010.16 1010.23 1010.42 1010.71 1011.08 1011.53 1012.02 1012.52 1013.04 1013.54 1014.02 1014.47 1014.90 1015.29 1015.66 1016.02 1016.36 1016.68 1016.99 1017.29 1017.57 1017.83 1018.06 1018.26 1018.42 1018.53 1018.59 1018.59 1018.53 1018.42 1018.24 1018.02
1008.48 1009.22 1009.85 1010.32 1010.60 1010.67 1010.56 1010.30 1009.96 1009.61 1009.31 1009.12 1009.09 1009.22 1009.53 1009.99 1010.57 1011.22 1011.90 1012.57 1013.21 1013.80 1014.33 1014.80 1015.23 1015.63 1016.00 1016.37 1016.73 1017.09 1017.44 1017.78 1018.09 1018.39 1018.64 1018.87 1019.05 1019.19 1019.29 1019.34 1019.35 1019.30 1019.21 1019.07
1008.69 1009.36 1009.93 1010.32 1010.50 1010.46 1010.21 1009.82 1009.34 1008.88 1008.49 1008.26 1008.23 1008.42 1008.83 1009.43 1010.16 1010.98 1011.82 1012.63 1013.39 1014.07 1014.66 1015.17 1015.62 1016.02 1016.41 1016.79 1017.17 1017.55 1017.93 1018.29 1018.64 1018.95 1019.22 1019.46 1019.66 1019.82 1019.95 1020.05 1020.12 1020.15 1020.13 1020.07
1008.93 1009.50 1009.96 1010.25 1010.33 1010.19 1009.85 1009.37 1008.82 1008.29 1007.87 1007.63 1007.61 1007.85 1008.33 1009.03 1009.89 1010.83 1011.80 1012.73 1013.59 1014.35 1015.01 1015.57 1016.05 1016.49 1016.90 1017.30 1017.70 1018.10 1018.49 1018.87 1019.22 1019.54 1019.82 1020.07 1020.28 1020.47 1020.63 1020.77 1020.89 1020.98 1021.03 1021.04
1009.11 1009.55 1009.89 1010.07 1010.06 1009.85 1009.46 1008.95 1008.38 1007.84 1007.43 1007.21 1007.23 1007.52 1008.07 1008.84 1009.78 1010.81 1011.87 1012.89 1013.83 1014.67 1015.39 1016.01 1016.54 1017.02 1017.46 1017.88 1018.30 1018.72 1019.13 1019.51 1019.87 1020.20 1020.49 1020.74 1020.96 1021.17 1021.35 1021.53 1021.69 1021.83 1021.94 1022.01
1009.18 1009.48 1009.70 1009.78 1009.70 1009.46 1009.06 1008.56 1008.03 1007.55 1007.19 1007.03 1007.10 1007.45 1008.04 1008.87 1009.86 1010.94 1012.06 1013.14 1014.15 1015.05 1015.83 1016.50 1017.08 1017.60 1018.08 1018.54 1018.98 1019.41 1019.83 1020.23 1020.60 1020.93 1021.23 1021.49 1021.73 1021.95 1022.15 1022.35 1022.54 1022.71 1022.86 1022.97
1009.11 1009.28 1009.38 1009.39 1009.27 1009.03 1008.67 1008.25 1007.80 1007.42 1007.16 1007.08 1007.23 1007.63 1008.27 1009.13 1010.15 1011.26 1012.40 1013.51 1014.55 1015.49 1016.32 1017.03 1017.66 1018.22 1018.74 1019.23 1019.69 1020.15 1020.58 1020.99 1021.38 1021.72 1022.03 1022.31 1022.57 1022.80 1023.02 1023.23 1023.44 1023.62 1023.78 1023.91
1008.91 1008.96 1008.98 1008.94 1008.83 1008.62 1008.35 1008.03 1007.72 1007.47 1007.33 1007.37 1007.60 1008.07 1008.74 1009.62 1010.64 1011.74 1012.88 1013.99 1015.04 1015.99 1016.84 1017.59 1018.26 1018.85 1019.39 1019.91 1020.40 1020.87 1021.33 1021.76 1022.16 1022.53 1022.86 1023.16 1023.43 1023.68 1023.92 1024.13 1024.34 1024.53 1024.69 1024.82
1008.61 1008.59 1008.56 1008.51 1008.43 1008.30 1008.13 1007.95 1007.79 1007.70 1007.70 1007.86 1008.19 1008.71 1009.42 1010.29 1011.29 1012.37 1013.48 1014.57 1015.60 1016.55 1017.40 1018.16 1018.83 1019.45 1020.01 1020.54 1021.05 1021.54 1022.02 1022.47 1022.90 1023.29 1023.65 1023.98 1024.27 1024.54 1024.78 1025.00 1025.20 1025.38 1025.53 1025.65
1008.29 1008.22 1008.18 1008.15 1008.13 1008.09 1008.06 1008.02 1008.02 1008.08 1008.23 1008.50 1008.91 1009.49 1010.22 1011.08 1012.06 1013.09 1014.15 1015.20 1016.19 1017.11 1017.95 1018.70 1019.37 1019.98 1020.55 1021.09 1021.60 1022.10 1022.59 1023.07 1023.52 1023.94 1024.33 1024.68 1025.00 1025.28 1025.54 1025.76 1025.95 1026.12 1026.26 1026.38
Thickness
5767 5756 5749 5756 5763 5766 5766 5763 5762 5771 5787 5786 5782 5785 5794 5802 5803 5801 5800 5801 5801 5802 5802 5799 5796 5793 5787 5782 5777 5773 5770 5767 5763 5758 5754 5751 5748 5747 5745 5744 5743 5742 5741 5740
5749 5747 5760 5764 5765 5766 5764 5759 5760 5769 5782 5783 5778 5782 5793 5799 5802 5805 5803 5803 5804 5802 5799 5798 5796 5793 5789 5785 5780 5776 5773 5769 5766 5762 5759 5755 5751 5749 5748 5746 5744 5743 5742 5740
5742 5754 5764 5761 5758 5757 5757 5756 5759 5762 5770 5776 5775 5771 5782 5794 5801 5803 5805 5806 5806 5804 5801 5799 5796 5794 5791 5786 5783 5780 5775 5771 5767 5764 5759 5755 5751 5748 5745 5744 5744 5744 5743 5741
5742 5756 5759 5755 5754 5755 5746 5764 5764 5762 5753 5745 5760 5742 5768 5780 5787 5795 5801 5803 5805 5806 5804 5800 5797 5794 5792 5790 5786 5782 5777 5773 5769 5765 5760 5755 5751 5747 5747 5746 5745 5744 5742 5741
5737 5750 5752 5749 5755 5758 5756 5767 5763 5759 5749 5740 5747 5740 5752 5772 5777 5789 5799 5805 5807 5807 5806 5803 5801 5798 5795 5791 5787 5783 5778 5774 5770 5766 5762 5757 5754 5751 5748 5747 5745 5743 5742 5741
5741 5754 5757 5757 5764 5765 5763 5755 5745 5733 5729 5720 5738 5735 5743 5761 5778 5790 5800 5805 5808 5809 5807 5804 5801 5797 5793 5790 5786 5782 5777 5773 5770 5766 5762 5759 5755 5751 5747 5745 5743 5742 5741 5741
5729 5742 5756 5762 5753 5755 5751 5727 5707 5709 5700 5709 5735 5735 5744 5776 5788 5795 5800 5805 5808 5808 5805 5801 5796 5793 5790 5787 5784 5781 5776 5771 5769 5766 5763 5760 5756 5753 5750 5747 5745 5742 5740 5740
5709 5714 5743 5754 5750 5741 5738 5729 5705 5698 5699 5709 5730 5729 5755 5784 5792 5798 5802 5804 5805 5804 5803 5801 5798 5794 5790 5786 5783 5780 5775 5771 5768 5766 5764 5761 5757 5754 5752 5750 5747 5744 5743 5742
5704 5712 5745 5756 5761 5750 5731 5726 5732 5710 5708 5708 5717 5736 5761 5783 5787 5792 5796 5798 5798 5800 5800 5798 5796 5793 5790 5785 5783 5779 5775 5771 5769 5767 5763 5759 5757 5755 5753 5751 5749 5747 5745 5743
5716 5713 5736 5751 5753 5749 5744 5731 5713 5703 5693 5697 5716 5727 5741 5768 5776 5783 5787 5790 5793 5795 5796 5795 5793 5791 5788 5785 5782 5778 5774 5771 5769 5767 5763 5760 5757 5755 5753 5750 5748 5747 5745 5743
5721 5711 5722 5734 5735 5731 5729 5725 5715 5703 5705 5694 5698 5720 5761 5768 5775 5779 5784 5788 5791 5792 5791 5790 5789 5788 5784 5781 5779 5774 5771 5769 5766 5764 5762 5760 5758 5755 5753 5750 5748 5746 5744 5742
5715 5702 5700 5718 5739 5747 5741 5730 5719 5708 5702 5701 5702 5722 5771 5772 5776 5780 5783 5786 5788 5788 5788 5787 5786 5783 5779 5777 5775 5771 5769 5767 5766 5764 5761 5759 5758 5755 5752 5750 5747 5745 5743 5741
5711 5697 5689 5699 5715 5731 5732 5729 5727 5717 5702 5694 5700 5728 5767 5770 5773 5777 5779 5781 5782 5783 5783 5781 5779 5776 5774 5773 5771 5768 5767 5766 5765 5763 5760 5758 5756 5754 5751 5748 5745 5743 5741 5739
5718 5695 5693 5691 5703 5719 5725 5727 5724 5718 5702 5699 5712 5734 5754 5762 5767 5771 5774 5776 5777 5778 5778 5776 5773 5771 5770 5769 5767 5766 5765 5765 5764 5761 5758 5755 5753 5751 5748 5745 5743 5740 5738 5737
5711 5696 5702 5708 5720 5725 5728 5729 5726 5726 5721 5717 5727 5735 5753 5762 5766 5768 5770 5772 5773 5772 5773 5772 5770 5768 5765 5764 5764 5763 5763 5763 5761 5757 5754 5752 5750 5747 5744 5741 5739 5737 5735 5733
5699 5696 5700 5706 5718 5723 5722 5727 5729 5731 5730 5732 5737 5741 5759 5763 5764 5764 5766 5767 5767 5769 5769 5769 5768 5766 5763 5761 5760 5759 5758 5757 5756 5753 5750 5748 5745 5742 5739 5737 5734 5732 5730 5728
5688 5689 5686 5689 5707 5714 5704 5719 5726 5729 5734 5735 5734 5746 5755 5756 5759 5761 5762 5764 5764 5765 5765 5765 5764 5763 5760 5758 5757 5755 5753 5751 5749 5747 5744 5742 5740 5737 5734 5732 5729 5727 5724 5722
5686 5682 5676 5679 5692 5683 5706 5729 5732 5731 5734 5739 5745 5751 5753 5755 5756 5759 5761 5761 5761 5761 5760 5760 5759 5758 5757 5754 5752 5750 5747 5744 5741 5739 5738 5736 5734 5731 5729 5727 5724 5721 5719 5717
5688 5682 5671 5668 5673 5687 5709 5724 5727 5725 5727 5740 5742 5745 5747 5751 5751 5750 5756 5759 5758 5758 5756 5755 5754 5753 5751 5748 5746 5743 5740 5737 5734 5732 5731 5730 5728 5726 5723 5720 5718 5716 5713 5710
5678 5679 5671 5666 5670 5674 5702 5725 5732 5729 5720 5740 5741 5742 5744 5747 5737 5741 5750 5752 5751 5751 5750 5749 5748 5746 5744 5741 5740 5736 5731 5729 5726 5725 5724 5723 5722 5719 5716 5713 5710 5708 5705 5702
5664 5664 5664 5665 5670 5683 5710 5722 5727 5709 5719 5739 5740 5742 5743 5742 5744 5746 5746 5745 5744 5743 5742 5741 5740 5737 5734 5734 5733 5728 5725 5720 5718 5718 5716 5716 5714 5711 5709 5705 5703 5700 5697 5693
5657 5657 5657 5659 5665 5679 5711 5716 5714 5718 5730 5735 5737 5738 5739 5739 5740 5740 5739 5737 5736 5735 5734 5732 5730 5728 5726 5726 5724 5720 5717 5714 5713 5711 5709 5707 5705 5703 5701 5698 5695 5692 5689 5685
5653 5659 5661 5666 5674 5692 5701 5708 5715 5720 5724 5728 5731 5732 5733 5732 5731 5731 5729 5728 5727 5726 5725 5723 5722 5719 5717 5716 5715 5711 5708 5708 5706 5703 5699 5697 5695 5693 5691 5689 5686 5683 5680 5676
5654 5660 5662 5667 5678 5688 5697 5705 5711 5716 5719 5723 5725 5726 5727 5725 5724 5723 5721 5719 5718 5717 5716 5715 5714 5711 5707 5706 5704 5702 5701 5700 5698 5694 5690 5688 5686 5683 5680 5678 5675 5673 5670 5667
5649 5655 5657 5662 5674 5684 5692 5697 5703 5709 5713 5715 5716 5718 5719 5718 5716 5715 5712 5709 5708 5707 5707 5706 5704 5701 5697 5696 5694 5693 5692 5691 5688 5684 5682 5678 5675 5672 5668 5665 5661 5660 5657 5656
5645 5651 5655 5659 5670 5674 5681 5690 5697 5700 5703 5706 5707 5707 5710 5711 5709 5706 5703 5701 5701 5700 5698 5696 5694 5691 5688 5687 5685 5683 5682 5682 5680 5676 5672 5669 5666 5662 5659 5655 5649 5645 5644 5643